Preview of NWS' New Version of Forecast
This preview is not operational and should not be used for support decisions.

Regional Weather Roundup (RWR)

Issued by National Weather Service (NWS)

                            
000
ASUS45 KCYS 161810
RWRWY 

WYOMING REGIONAL WEATHER ROUNDUP
NATIONAL WEATHER SERVICE CHEYENNE WY
1100 AM MST SAT FEB 16 2019

NOTE:  "FAIR" INDICATES FEW OR NO CLOUDS BELOW 12,000 FEET
WITH NO SIGNIFICANT WEATHER AND/OR OBSTRUCTIONS TO VISIBILITY.

WYZ001-161900-
...YELLOWSTONE NATIONAL PARK...
  
CITY           SKY/WX    TMP DP  RH WIND       PRES   REMARKS
LK YELLOWSTONE   N/A     18   7  62 W8        29.61S WCI   8          
6HR MIN TEMP:   4; 6HR MAX TEMP:  18;                                

W YELLOWSTONE  NOT AVBL                                               

$$
WYZ002>013-054>058-071-098>099-161900-
...NORTHERN WYOMING...
  
CITY           SKY/WX    TMP DP  RH WIND       PRES   REMARKS
JACKSON        CLOUDY    29  13  51 S9        29.67R WCI  20          
CODY           CLOUDY    32   9  38 NW8       29.61  WCI  25          
GREYBULL       CLOUDY    33  20  58 NW10      29.61R WCI  25          
6HR MIN TEMP:  19; 6HR MAX TEMP:  33;                                

WORLAND        CLOUDY    32  19  58 N7        29.60R WCI  26          
6HR MIN TEMP:  19; 6HR MAX TEMP:  33;                                

SHERIDAN       CLOUDY    19  14  81 VRB7      29.63R WCI  10          
6HR MIN TEMP:  18; 6HR MAX TEMP:  30; 6HR PCP:  0.03;                

BUFFALO        CLOUDY    24  18  77 N24G31    29.52R WCI   8          
6HR MIN TEMP:  21; 6HR MAX TEMP:  29; 6HR PCP: TRACE;                

GILLETTE       PTSUNNY   28  22  78 NW20      29.55R WCI  15          
6HR MIN TEMP:  24; 6HR MAX TEMP:  28; 6HR PCP:  0.02;                

HULETT         LGT SNOW  21  18  86 NW5       29.56R WCI  15          
NEWCASTLE      LGT SNOW  28  21  74 NW14      29.52S WCI  17          

$$
WYZ014>020-022>026-101>103-161900-
...CENTRAL WYOMING...
  
CITY           SKY/WX    TMP DP  RH WIND       PRES   REMARKS
BIG PINEY      SUNNY     20   9  62 N16       29.66R WCI   6          
6HR MIN TEMP:   2; 6HR MAX TEMP:  20;                                

PINEDALE       SUNNY     16  10  79 NW9       29.65S WCI   4          
DUBOIS         PTSUNNY   23   9  54 NW18G26   29.57S WCI   9          
LANDER         MOSUNNY   26  13  57 S6        29.58R WCI  19          
6HR MIN TEMP:  19; 6HR MAX TEMP:  27;                                

RIVERTON       CLOUDY    29  16  58 NE8       29.59R WCI  21          
6HR MIN TEMP:  24; 6HR MAX TEMP:  29;                                

CASPER         PTSUNNY   31  21  66 NE12      29.56S WCI  22          
6HR MIN TEMP:  23; 6HR MAX TEMP:  34;                                

DOUGLAS        CLOUDY    28  25  88 NW16      29.56R FOG     WCI  16  
6HR MIN TEMP:  20; 6HR MAX TEMP:  30; 6HR PCP: TRACE;                


$$
WYZ021-027>030-104>119-161900-
...SOUTHERN WYOMING...
  
CITY           SKY/WX    TMP DP  RH WIND       PRES   REMARKS
EVANSTON       MOSUNNY   18   9  68 SW13      29.73S WCI   5          
6HR MIN TEMP:   8; 6HR MAX TEMP:  18; 6HR PCP: TRACE;                

KEMMERER       SUNNY     19  12  73 W25G31    29.67F HAZE    WCI   2  
FORT BRIDGER   SUNNY     21  12  68 E17       29.75R WCI   7          
ROCK SPRINGS   SUNNY     19  12  74 W23       29.69R WCI   2          
6HR MIN TEMP:  17; 6HR MAX TEMP:  19;                                

DIXON          CLOUDY    25  15  65 W8        29.69S WCI  16          
RAWLINS        CLOUDY    22  12  65 W21G36    29.59R WCI   6          
6HR MIN TEMP:  19; 6HR MAX TEMP:  22;                                

SARATOGA       CLOUDY    23  14  68 W16       29.61R WCI  10          
LARAMIE        MOSUNNY   28  12  51 NW12      29.49S WCI  18          
6HR MIN TEMP:  17; 6HR MAX TEMP:  28;                                

CHEYENNE       MOSUNNY   33  11  39 NW28G39   29.48R WCI  20          
6HR MIN TEMP:  19; 6HR MAX TEMP:  34;                                

TORRINGTON     CLOUDY    23  17  78 SW5       29.52S WCI  17          
6HR MIN TEMP:   9; 6HR MAX TEMP:  23;                                

PINE BLUFFS    FAIR      36  12  38 NW23G31   29.48F WCI  24          

$$
  

000
ASUS45 KCYS 161810
RWRWY 

WYOMING REGIONAL WEATHER ROUNDUP
NATIONAL WEATHER SERVICE CHEYENNE WY
1100 AM MST SAT FEB 16 2019

NOTE:  "FAIR" INDICATES FEW OR NO CLOUDS BELOW 12,000 FEET
WITH NO SIGNIFICANT WEATHER AND/OR OBSTRUCTIONS TO VISIBILITY.

WYZ001-161900-
YELLOWSTONE NATIONAL PARK
  
CITY           SKY/WX    TMP DP  RH WIND       PRES   REMARKS
LK YELLOWSTONE   N/A     18   7  62 W8        29.61S WCI   8          
6HR MIN TEMP:   4; 6HR MAX TEMP:  18;                                

W YELLOWSTONE  NOT AVBL                                               

$$
WYZ002>013-054>058-071-098>099-161900-
NORTHERN WYOMING
  
CITY           SKY/WX    TMP DP  RH WIND       PRES   REMARKS
JACKSON        CLOUDY    29  13  51 S9        29.67R WCI  20          
CODY           FAIR      32   9  38 NW8       29.61  WCI  25          
GREYBULL       CLOUDY    33  20  58 NW10      29.61R WCI  25          
6HR MIN TEMP:  19; 6HR MAX TEMP:  33;                                

WORLAND        PTSUNNY   32  19  58 N7        29.60R WCI  26          
6HR MIN TEMP:  19; 6HR MAX TEMP:  33;                                

SHERIDAN       CLOUDY    19  14  81 VRB7      29.63R WCI  10          
6HR MIN TEMP:  18; 6HR MAX TEMP:  30; 6HR PCP:  0.03;                

BUFFALO        CLOUDY    24  18  77 N24G31    29.52R WCI   8          
6HR MIN TEMP:  21; 6HR MAX TEMP:  29; 6HR PCP: TRACE;                

GILLETTE       PTSUNNY   28  22  78 NW20      29.55R WCI  15          
6HR MIN TEMP:  24; 6HR MAX TEMP:  28; 6HR PCP:  0.02;                

HULETT         LGT SNOW  21  18  86 NW5       29.56  WCI  15          
NEWCASTLE      LGT SNOW  28  21  74 NW14      29.52  WCI  17          

$$
WYZ014>020-022>026-101>103-161900-
CENTRAL WYOMING
  
CITY           SKY/WX    TMP DP  RH WIND       PRES   REMARKS
BIG PINEY      FAIR      20   9  62 N16       29.66R WCI   6          
6HR MIN TEMP:   2; 6HR MAX TEMP:  20;                                

PINEDALE       FAIR      16  10  79 NW9       29.65  WCI   4          
DUBOIS         MOCLDY    23   9  54 NW18G26   29.57  WCI   9          
LANDER         FAIR      26  13  57 S6        29.58R WCI  19          
6HR MIN TEMP:  19; 6HR MAX TEMP:  27;                                

RIVERTON       CLOUDY    29  16  58 NE8       29.59R WCI  21          
6HR MIN TEMP:  24; 6HR MAX TEMP:  29;                                

CASPER         PTSUNNY   31  21  66 NE12      29.56S WCI  22          
6HR MIN TEMP:  23; 6HR MAX TEMP:  34;                                

DOUGLAS        CLOUDY    28  25  88 NW16      29.56R FOG     WCI  16  
6HR MIN TEMP:  20; 6HR MAX TEMP:  30; 6HR PCP: TRACE;                


$$
WYZ021-027>030-104>119-161900-
SOUTHERN WYOMING
  
CITY           SKY/WX    TMP DP  RH WIND       PRES   REMARKS
EVANSTON       FAIR      18   9  68 SW13      29.73S WCI   5          
6HR MIN TEMP:   8; 6HR MAX TEMP:  18; 6HR PCP: TRACE;                

KEMMERER       FAIR      19  14  79 W22G28    29.68  HAZE    WCI   3  
FORT BRIDGER   CLEAR     21  12  68 E17       29.75R WCI   7          
ROCK SPRINGS   FAIR      19  12  74 W23       29.69R WCI   2          
6HR MIN TEMP:  17; 6HR MAX TEMP:  19;                                

DIXON          CLOUDY    25  15  65 W8        29.69S WCI  16          
RAWLINS        PTSUNNY   22  12  65 W21G36    29.59R WCI   6          
6HR MIN TEMP:  19; 6HR MAX TEMP:  22;                                

SARATOGA       CLOUDY    23  14  68 W16       29.61R WCI  10          
LARAMIE        FAIR      28  12  51 NW12      29.49S WCI  18          
6HR MIN TEMP:  17; 6HR MAX TEMP:  28;                                

CHEYENNE       FAIR      33  11  39 NW28G39   29.48R WCI  20          
6HR MIN TEMP:  19; 6HR MAX TEMP:  34;                                

TORRINGTON     FAIR      23  17  78 SW5       29.52S WCI  17          
6HR MIN TEMP:   9; 6HR MAX TEMP:  23;                                

PINE BLUFFS    FAIR      36  12  38 NW23G31   29.48F WCI  24          

$$